Location: Oberkirch
(48.5323°N, 8.0787°E)
Time: 20:34:45
(UTC+00:00)

STARS - Visible Passes

Search period start: 16 March 2026 00:00
Search period end: 26 March 2026 00:00
Orbit: 575 x 589 km, 98.1° (Epoch: 16 March)

Date Brightness Start Highest point End Pass type
(mag) Time Alt. Az. Time Alt. Az. Time Alt. Az.
16 Mar ? 02:21:13 10° N 02:21:47 13° N 02:21:47 13° N visible
17 Mar ? 02:26:55 10° N 02:27:36 14° N 02:27:36 14° N visible
18 Mar ? 02:32:37 10° N 02:33:24 14° NNW 02:33:24 14° NNW visible
19 Mar ? 01:02:43 10° NNE 01:02:49 10° NNE 01:02:49 10° NNE visible
19 Mar ? 02:38:20 10° N 02:39:12 15° NNW 02:39:12 15° NNW visible
20 Mar ? 01:08:16 10° NNE 01:08:36 12° NNE 01:08:36 12° NNE visible
20 Mar ? 02:44:03 10° NNW 02:45:00 15° NNW 02:45:00 15° NNW visible
21 Mar ? 01:13:48 10° NNE 01:14:23 14° NNE 01:14:23 14° NNE visible
21 Mar ? 02:49:47 10° NNW 02:50:46 14° NNW 02:50:46 14° NNW visible
22 Mar ? 01:19:22 10° NNE 01:20:10 15° NNE 01:20:10 15° NNE visible
22 Mar ? 02:55:31 10° NNW 02:56:33 14° NNW 02:56:33 14° NNW visible
23 Mar ? 01:24:55 10° NNE 01:25:56 17° NNE 01:25:56 17° NNE visible
23 Mar ? 03:01:17 10° NNW 03:02:19 14° NW 03:02:19 14° NW visible
24 Mar ? 01:30:28 10° NNE 01:31:42 19° NNE 01:31:42 19° NNE visible
24 Mar ? 03:07:05 10° NNW 03:08:05 13° NW 03:08:05 13° NW visible
25 Mar ? 01:36:01 10° NNE 01:37:28 21° NNE 01:37:28 21° NNE visible
25 Mar ? 03:12:55 10° NNW 03:13:51 12° NW 03:13:51 12° NW visible
